Location: Arborea
(39.7744°N, 8.5819°E)
Time: 18:50:01
(UTC+00:00)

CZ-2C DEB - Pass Details

Date: 20 August 2022
Orbit: 681 x 927 km, 97.9° (Epoch: 03 October)

Event Time Altitude Azimuth Distance (km) Brightness Sun altitude
Rises 22:13:58 0° 360° (N) 3,265 ? -35.2°
Reaches altitude 10° 22:16:30 10° 349° (N) 2,373 ? -35.4°
Enters shadow 22:20:38 28° 297° (WNW) 1,500 ? -35.6°
